Location: Ar Ranvel
(48.3000°N, 4.8833°W)
Time: 20:48:20
(UTC+00:00)

Meteor 2-10 Rocket - Pass Details

Date: 01 November 2021
Orbit: 733 x 885 km, 81.2° (Epoch: 30 November)

Event Time Altitude Azimuth Distance (km) Brightness Sun altitude
Rises 19:20:01 0° 231° (SW) 3,321 7.5 -23.7°
Reaches altitude 10° 19:22:59 10° 246° (WSW) 2,366 6.8 -24.1°
Maximum altitude 19:27:00 22° 296° (WNW) 1,674 6.0 -24.8°
Drops below altitude 10° 19:30:58 10° 346° (NNW) 2,307 6.2 -25.5°
Sets 19:33:50 0° 2° (N) 3,216 6.8 -25.9°
